Wind_Speed
13 14 14 15 15 14 14 14 14 14 13 12 13 14 14 13 13 12 11 11 10 10 9 7 7 7 5 4 4 3 3 3 3 3 3 3 3 4 5 5 5 5 4 3 3 3 3 3 2 4 5 2 3 1 2 2 3 4 4 5 7 7 6 7 7 6 8 8 8 9 10 10 11 10 10 11 11 11 10 10 11 11 11 11 11
13 13 14 14 15 14 13 14 14 14 13 13 14 14 14 13 13 12 11 11 11 9 8 7 7 6 5 4 3 3 3 2 3 4 4 4 4 4 5 6 6 6 5 4 4 3 3 3 3 3 6 2 1 2 3 2 4 6 6 6 7 7 6 7 7 7 8 8 8 9 10 10 10 10 10 11 11 11 11 11 11 11 11 11 12
13 13 13 14 15 14 14 15 14 13 13 13 14 14 13 13 12 11 12 12 11 9 7 7 7 6 4 4 2 3 2 1 2 3 3 3 4 4 5 5 6 6 5 5 4 4 4 4 3 2 5 3 2 0 2 3 6 7 6 6 6 7 6 6 6 7 8 7 7 8 9 9 10 10 10 11 11 11 11 11 11 11 11 12 14
14 14 13 13 14 15 15 14 13 13 13 13 13 13 13 12 12 12 12 13 12 8 7 8 8 6 4 4 3 3 2 0 2 2 2 2 3 3 3 4 5 6 5 4 4 4 4 3 3 2 4 4 3 2 2 3 6 5 4 5 7 8 6 6 6 7 7 7 8 8 8 9 10 10 11 11 12 11 11 11 11 11 13 15 17
14 14 14 14 14 15 15 14 13 13 13 13 13 13 12 12 12 11 13 14 11 7 6 7 8 6 5 5 4 3 2 0 2 1 1 2 2 3 3 4 4 4 5 4 4 4 4 4 5 3 4 4 2 2 2 2 4 2 3 5 7 7 7 7 7 8 8 8 8 8 8 9 10 11 11 12 12 11 11 11 12 13 15 17 19
14 14 13 14 14 14 14 13 13 12 12 12 12 12 12 11 11 11 14 15 10 6 6 7 8 8 7 6 5 4 3 1 1 0 1 2 3 4 4 4 4 4 5 5 5 6 6 6 6 3 3 3 1 1 1 2 2 2 3 5 6 7 8 8 8 9 9 9 9 9 9 10 11 12 11 12 12 11 11 12 13 15 17 19 19
13 13 12 13 13 13 13 12 12 11 11 11 11 11 11 10 10 12 15 15 9 6 7 9 9 9 8 7 6 6 5 3 2 1 3 4 3 4 4 4 5 5 5 6 7 7 7 8 6 4 3 2 2 1 1 1 2 3 4 6 6 6 9 10 10 10 9 10 10 10 10 11 12 12 12 12 11 11 13 14 14 16 18 18 18
13 13 12 13 12 11 11 11 11 10 10 10 10 10 10 9 9 13 16 14 9 8 9 10 10 10 9 7 6 6 5 4 2 2 3 3 3 3 4 4 5 6 6 6 7 7 8 9 7 4 3 1 1 1 0 2 3 3 5 7 7 8 11 11 11 11 11 11 11 11 11 12 13 12 13 12 11 12 14 15 16 17 17 17 17
12 12 12 12 11 10 10 9 9 9 9 9 10 9 9 8 10 13 15 13 9 9 10 11 11 11 9 8 8 7 6 4 3 3 3 3 3 3 3 3 4 5 5 6 7 7 9 10 7 4 3 3 2 2 2 2 2 3 6 8 9 11 12 11 12 12 12 12 12 12 13 13 13 13 13 12 12 14 15 16 16 16 16 17 17
13 12 12 11 10 9 9 9 9 9 9 9 10 9 9 9 10 13 13 11 10 10 11 12 12 12 11 10 10 10 9 8 7 7 8 8 7 7 6 6 6 6 5 5 6 7 9 9 6 3 3 4 4 4 3 3 4 6 8 9 11 12 12 12 13 13 13 13 13 13 14 14 14 13 12 12 14 15 16 16 16 15 16 16 17
13 13 12 11 10 9 9 9 9 9 9 10 9 9 9 9 10 12 12 11 10 11 13 13 13 12 12 12 12 13 13 13 12 12 12 11 11 11 10 10 9 8 7 6 6 6 7 6 3 3 3 4 5 5 4 6 7 9 11 12 13 13 14 14 13 14 14 14 13 14 14 14 14 13 12 13 15 16 16 15 15 15 16 16 15
13 13 12 11 9 9 8 9 9 10 10 10 9 9 10 10 10 11 12 12 11 12 14 14 13 12 13 13 14 16 16 15 15 16 15 13 13 13 12 11 10 9 9 8 7 7 6 4 4 5 6 6 7 6 7 10 11 13 14 14 14 15 15 15 15 15 14 14 14 14 14 14 13 13 13 14 15 16 15 14 14 15 16 15 15
13 12 12 11 10 9 8 9 9 10 10 10 10 10 11 10 10 11 13 13 12 12 13 14 14 13 14 15 16 17 17 15 15 16 15 14 13 13 12 11 10 10 10 9 7 7 7 6 6 9 10 11 12 11 12 15 17 17 17 17 17 17 16 16 16 15 15 15 15 15 14 14 13 13 14 15 15 15 14 14 15 15 15 14 15
12 12 11 11 10 9 9 9 10 10 10 10 10 11 11 11 11 12 14 14 13 12 13 14 14 14 14 15 16 18 18 15 14 15 15 14 14 14 14 14 13 11 11 11 10 10 11 10 9 11 14 16 17 17 17 18 19 19 19 19 19 18 17 17 16 15 16 15 15 15 14 13 12 14 15 15 15 14 14 15 15 14 13 14 16
12 11 11 11 11 10 9 10 10 10 10 10 11 11 11 11 12 13 14 14 13 12 13 14 14 14 15 15 16 17 17 16 15 15 16 16 16 17 16 16 15 14 14 13 12 12 15 15 14 15 17 20 21 21 20 20 21 20 20 19 19 18 17 16 16 16 16 16 16 15 13 13 13 14 15 14 14 14 14 14 14 13 14 15 15
12 11 11 10 11 11 10 10 10 10 10 11 11 12 12 12 13 13 14 14 14 13 13 13 14 15 15 16 17 17 17 16 16 17 18 18 18 18 18 18 17 16 16 16 15 14 17 20 20 19 20 21 23 22 21 21 21 20 19 19 19 19 17 16 16 17 16 16 15 14 13 13 13 14 15 14 14 14 14 13 13 13 14 14 14
12 11 10 10 11 11 11 10 10 10 10 11 12 12 12 12 13 13 14 14 14 14 13 13 13 14 16 16 16 17 17 17 17 17 18 18 19 19 19 19 19 18 17 17 16 16 17 20 22 22 22 22 22 22 21 20 20 19 18 18 18 18 17 16 16 17 16 15 14 14 13 13 13 14 15 15 14 14 13 13 13 13 13 13 14
12 11 10 10 10 11 11 10 10 9 10 11 12 13 13 12 13 14 14 14 14 13 13 14 14 14 15 16 16 15 16 16 16 17 17 17 18 19 19 19 19 18 18 17 17 17 17 18 20 21 21 21 21 21 20 20 19 18 17 17 17 17 16 16 16 16 15 14 14 14 13 13 13 15 15 15 14 13 12 12 12 12 12 13 14
12 11 10 10 10 10 11 10 9 9 10 11 12 13 13 12 12 13 14 14 14 14 14 14 14 14 15 16 16 15 15 16 16 16 16 17 17 18 19 20 19 19 18 18 17 17 17 17 18 19 19 19 20 20 19 19 18 17 16 16 15 15 15 15 16 15 15 14 14 14 13 13 14 15 15 14 13 13 12 12 11 11 13 14 14
12 11 10 10 10 10 10 10 9 9 10 12 13 14 13 12 12 13 13 14 14 15 15 15 14 14 15 15 15 15 15 16 15 15 16 16 16 17 19 19 19 19 18 18 17 17 17 17 17 17 17 17 17 18 17 17 17 16 15 15 15 15 15 15 16 15 14 14 14 14 14 15 15 15 15 14 13 12 12 11 11 12 13 14 14
11 10 10 10 10 9 9 9 9 9 11 12 13 14 13 12 12 13 14 14 14 15 15 15 14 14 15 14 15 15 15 15 15 15 16 16 15 16 17 18 18 18 18 17 17 16 16 15 15 15 15 15 15 15 15 15 15 14 14 14 14 14 15 15 15 15 14 14 15 15 16 16 15 15 14 13 12 12 11 11 12 13 14 14 14
10 10 10 10 9 10 9 8 8 9 11 12 13 13 13 13 13 13 14 14 14 15 16 16 14 14 15 15 15 15 15 15 15 15 15 15 14 14 15 16 16 17 17 17 16 15 14 14 13 13 13 13 13 13 13 13 13 13 13 13 14 14 15 15 15 14 14 15 16 17 17 16 16 15 14 13 12 12 11 12 13 14 14 14 14
9 9 10 10 9 10 9 7 8 9 10 11 12 13 13 13 14 13 13 14 14 14 16 16 15 14 16 16 15 16 16 16 16 16 15 15 14 14 14 14 14 15 16 16 15 14 13 12 12 12 12 13 13 12 12 12 12 13 13 13 14 15 14 14 14 14 15 16 17 17 17 16 15 14 13 13 12 11 12 13 14 14 14 14 15
7 8 8 9 10 10 9 8 7 8 9 10 12 13 13 13 14 13 12 13 14 14 14 14 14 14 14 15 16 16 16 16 16 17 16 15 14 14 14 13 13 13 14 15 14 14 13 12 12 12 13 13 13 12 12 13 13 13 13 14 15 15 14 14 15 15 17 18 18 17 17 15 14 13 13 12 12 12 13 14 14 14 15 15 15
7 7 7 8 9 9 9 8 6 7 9 10 11 13 13 13 14 13 12 11 12 13 12 13 14 13 14 15 16 17 16 16 17 17 16 15 14 14 13 13 12 12 13 14 14 14 14 13 13 13 14 14 13 13 14 14 15 15 15 15 16 16 16 16 17 17 18 18 18 17 15 14 13 13 13 12 12 12 14 14 14 15 15 15 15
8 7 7 7 8 9 9 9 7 6 8 9 10 11 12 13 14 13 11 11 11 13 13 12 13 13 13 14 16 17 16 16 16 16 16 15 14 14 14 13 12 13 13 14 15 14 14 15 14 14 15 14 14 15 15 16 17 17 17 17 17 18 18 18 18 18 18 17 16 15 14 13 13 13 13 12 13 13 14 15 15 15 15 15 16
9 8 7 7 8 9 9 8 8 6 7 9 10 10 11 12 14 12 10 11 12 12 13 13 14 14 13 13 15 16 15 16 16 16 16 15 15 14 14 14 13 14 14 14 15 15 15 16 16 15 16 16 16 17 17 18 19 19 19 19 19 19 19 19 18 18 17 16 15 14 14 14 13 13 13 12 13 14 15 15 15 15 15 16 16
9 8 8 7 7 8 8 8 8 7 6 8 9 9 10 11 13 12 10 11 11 11 13 13 14 14 14 13 14 14 14 15 16 16 16 16 16 15 15 14 14 15 15 15 16 17 17 17 17 17 17 17 18 19 19 20 20 20 20 20 20 19 19 18 17 17 16 15 14 14 14 13 13 12 12 13 14 15 15 15 15 15 16 16 16
9 8 8 7 6 7 7 7 7 7 7 7 8 9 9 10 11 11 11 11 10 10 12 13 13 14 14 14 13 13 14 15 15 15 15 16 16 16 16 15 14 15 15 17 18 19 19 19 19 18 19 19 20 20 21 21 21 21 21 20 20 19 18 17 16 15 15 15 14 14 13 13 12 13 13 14 15 16 16 15 15 15 15 16 17
9 8 8 8 7 6 7 7 7 6 7 7 8 8 9 9 8 9 10 11 10 9 10 12 12 13 13 14 13 13 14 14 14 14 15 15 15 16 16 15 15 15 16 18 19 19 19 20 19 20 20 20 20 21 20 20 20 20 20 20 19 18 17 16 15 15 15 15 14 13 13 13 13 14 15 16 16 16 16 15 15 15 15 16 17
9 9 8 8 8 7 6 6 6 6 6 7 8 8 8 8 7 8 9 10 10 9 10 11 12 12 13 13 13 13 13 13 13 14 14 15 15 15 15 15 15 16 16 18 19 19 19 19 19 19 20 20 20 19 19 19 19 19 18 18 17 16 16 15 15 15 15 14 13 13 13 14 15 16 17 16 16 16 15 15 15 15 15 16 17
10 9 8 8 8 8 7 6 6 5 5 6 7 7 7 8 7 8 9 8 8 9 10 11 11 12 12 12 12 12 12 12 13 14 14 15 15 15 14 14 15 16 16 17 18 18 18 18 18 18 18 19 18 18 17 17 17 17 16 16 15 15 15 15 14 14 14 13 13 13 14 15 16 17 17 16 16 15 15 15 15 15 15 16 16
10 9 8 8 8 8 8 7 6 5 5 5 6 7 7 7 7 8 8 7 7 9 10 10 11 12 12 11 11 11 12 11 12 13 14 14 14 14 14 14 15 16 16 16 17 17 17 17 17 17 17 17 17 16 15 15 15 14 14 14 14 14 14 14 13 13 13 13 14 14 15 16 16 16 16 16 15 15 15 14 14 14 14 15 15
10 9 8 8 8 8 8 8 7 5 5 5 5 6 6 7 8 8 8 8 8 8 9 10 11 11 11 9 9 10 11 10 11 12 13 14 14 14 14 14 14 15 15 15 16 16 16 16 16 15 15 14 14 14 13 13 13 12 12 12 13 13 13 13 12 12 13 14 14 15 15 16 16 16 15 15 15 14 14 14 14 13 14 14 14
10 9 9 8 8 8 8 8 8 6 5 5 4 5 5 6 8 8 8 7 7 8 9 10 11 11 10 9 9 9 9 10 11 12 13 13 13 14 14 14 14 14 14 14 15 15 14 14 14 14 13 12 12 12 12 11 11 11 11 11 12 12 12 12 12 12 13 14 14 15 15 15 15 15 15 14 14 14 14 13 13 13 13 13 13
10 9 9 8 8 8 8 8 8 7 5 5 4 4 5 6 7 8 8 7 6 7 9 9 9 10 10 9 9 8 8 9 10 12 13 13 13 14 15 15 14 14 14 13 14 14 13 13 12 12 11 11 11 11 10 10 10 10 10 11 12 11 11 11 11 12 13 13 13 14 15 15 15 15 15 14 14 14 13 13 12 12 12 12 13
10 10 9 9 8 8 8 8 8 8 6 5 5 4 5 6 7 8 9 8 6 7 8 9 8 9 9 9 9 9 8 8 9 11 12 12 13 14 15 15 14 14 13 12 12 13 12 11 11 11 10 10 10 10 9 9 9 9 10 11 11 11 10 10 11 12 12 12 12 13 14 14 14 15 15 14 13 13 12 12 12 12 12 12 13
11 10 10 9 9 8 9 9 8 8 7 6 5 5 5 7 7 8 8 8 7 6 7 8 8 7 8 8 9 9 9 8 8 9 10 10 11 13 13 14 14 14 12 11 10 11 11 10 10 9 9 9 9 9 9 8 9 9 10 10 11 10 9 10 10 11 10 10 11 13 14 14 14 14 14 13 12 12 12 12 13 13 13 13 14
11 11 11 10 9 9 9 9 9 8 8 6 6 5 6 7 8 8 8 8 7 7 7 7 7 7 7 7 7 8 8 8 9 9 9 9 10 11 12 13 13 13 12 10 9 9 9 9 10 9 8 8 7 8 8 9 9 9 10 10 11 10 9 8 9 9 10 10 11 13 13 14 14 13 13 13 12 12 12 13 14 14 14 15 15
11 11 12 12 11 11 10 10 9 9 8 7 6 6 6 7 8 9 9 8 7 7 7 6 6 6 6 6 6 7 6 7 9 9 8 8 8 9 11 12 12 12 11 10 9 9 8 8 9 9 8 7 7 7 8 9 9 9 10 10 10 9 8 7 7 8 10 10 11 13 12 14 14 13 12 12 12 12 12 14 15 15 15 15 15
12 12 12 12 12 11 11 10 10 9 8 7 6 6 6 7 8 9 9 8 7 8 7 6 7 7 6 5 5 6 6 6 8 8 8 7 7 8 9 10 10 11 10 9 9 8 8 8 7 8 7 7 7 8 8 9 9 9 9 9 9 8 7 7 7 7 9 10 12 13 12 13 14 12 12 12 11 12 13 13 15 15 15 15 14
12 12 12 12 12 11 11 11 10 10 8 7 6 6 6 7 8 8 9 9 9 9 8 7 7 7 7 5 4 5 6 6 6 6 7 7 7 6 8 9 9 9 9 9 8 8 7 7 7 7 6 7 9 9 8 8 9 9 9 9 8 7 6 7 7 6 8 11 12 13 13 13 13 12 11 11 11 12 12 13 14 14 14 14 14
12 12 12 12 11 11 11 11 11 10 9 8 7 7 7 7 8 8 9 10 10 9 9 9 8 8 9 7 6 6 6 7 7 7 8 8 7 6 7 8 8 8 8 9 8 7 7 6 6 7 6 7 8 8 8 8 8 8 8 7 7 6 6 7 7 6 8 11 12 12 12 12 12 12 11 11 11 12 12 12 13 13 13 14 13
13 12 12 12 12 12 12 12 11 11 10 9 8 8 7 7 8 8 8 9 9 10 9 9 8 8 9 9 8 7 6 7 7 8 9 8 8 7 7 8 7 8 8 8 9 8 7 7 6 6 7 7 8 8 8 8 7 7 7 6 6 6 6 7 6 6 8 11 12 12 12 11 12 12 11 10 11 11 11 11 12 12 13 13 12
14 14 13 13 13 13 13 12 12 11 11 10 9 9 8 8 8 8 8 8 8 9 8 8 8 7 8 9 8 8 7 7 8 9 8 8 8 8 7 7 7 7 8 8 8 8 7 7 6 6 7 7 8 7 7 7 7 7 6 6 6 6 6 6 6 7 8 9 11 12 12 11 10 12 12 10 10 11 11 11 11 12 12 12 11
14 15 15 14 14 13 13 13 12 12 12 11 11 9 8 8 8 7 7 8 8 8 7 7 7 6 7 7 8 8 8 8 8 8 8 6 6 6 5 5 5 6 7 7 8 7 7 7 6 6 6 7 7 7 7 7 7 6 6 6 6 6 6 6 6 8 9 9 10 11 12 11 10 11 11 10 10 10 10 10 10 11 11 11 11
14 15 15 14 14 14 14 14 14 13 13 13 12 10 9 9 8 8 8 8 8 8 7 7 6 5 4 5 5 5 6 6 5 5 6 5 5 5 5 4 4 5 6 6 6 6 6 6 6 6 5 6 7 7 7 7 7 6 6 6 6 6 6 6 7 8 9 10 10 9 10 11 10 10 10 9 10 9 9 9 10 10 10 10 10
12 13 15 15 14 15 15 15 15 15 15 14 13 11 10 9 9 8 9 9 9 8 8 8 7 5 3 3 2 3 4 3 2 2 3 4 4 5 5 5 4 4 5 5 5 5 5 5 5 5 5 5 6 6 7 6 6 6 6 6 6 6 6 7 7 8 8 9 9 9 9 10 10 10 9 9 9 8 8 8 9 9 9 10 10
11 12 14 15 15 15 16 16 16 16 16 15 14 12 10 10 10 10 10 10 9 9 8 8 7 7 5 4 3 2 2 2 2 2 2 4 4 4 5 5 4 4 4 4 4 4 4 4 4 4 4 5 5 6 6 6 5 5 6 6 6 6 7 7 7 8 8 8 8 9 9 10 10 9 9 8 8 7 7 7 7 8 8 9 9
10 10 12 13 14 15 16 16 17 17 17 17 15 13 11 11 10 11 11 11 10 9 9 8 7 7 6 5 3 2 3 3 2 2 3 4 5 5 5 5 5 4 4 4 4 3 3 3 4 4 4 4 4 5 6 6 5 4 5 6 6 6 7 7 7 7 8 8 7 7 9 10 10 9 9 9 7 6 6 6 6 6 7 8 8
10 9 11 12 14 15 15 16 17 18 18 18 17 14 12 12 11 12 12 12 11 10 10 9 8 7 6 5 4 4 4 4 3 3 4 5 6 6 6 6 5 5 4 3 4 4 3 3 3 3 4 4 3 4 4 4 4 4 4 5 5 5 6 6 7 7 8 8 7 7 8 9 9 9 8 8 8 7 6 5 5 5 6 7 8
Wind_Direction
99 101 103 104 103 102 104 105 105 107 111 111 104 97 97 98 98 97 96 95 92 91 92 96 98 95 99 113 131 148 157 166 166 159 161 159 147 142 138 135 128 127 132 132 134 164 181 187 218 110 106 190 234 258 69 82 67 62 48 49 57 64 83 94 95 92 90 94 95 96 96 93 90 84 78 72 71 71 67 61 57 51 49 50 47
102 102 105 105 106 106 105 105 105 106 107 102 97 95 94 93 93 92 90 88 84 83 87 91 91 94 106 121 132 139 147 167 176 174 175 171 161 161 150 142 136 138 146 151 149 179 199 184 223 113 113 190 253 358 7 25 35 40 34 39 54 53 58 82 95 99 99 98 94 94 96 94 89 81 75 72 72 70 64 57 53 50 50 48 47
106 103 103 103 103 103 99 98 100 101 99 94 92 91 89 88 88 86 83 80 77 77 82 87 87 92 100 103 101 104 115 161 200 188 183 179 175 175 153 145 147 147 150 157 156 174 197 195 228 127 126 187 192 118 351 11 25 31 29 34 53 56 52 68 88 97 100 98 94 96 95 93 87 79 75 75 72 67 60 56 53 51 50 52 57
108 103 99 97 95 94 91 92 94 94 91 87 87 86 85 84 82 81 79 76 73 74 80 84 83 86 84 75 68 81 95 188 232 204 198 189 179 179 157 156 159 152 153 158 160 172 183 206 247 180 152 196 200 132 87 29 28 26 28 47 62 69 66 69 86 96 98 100 104 104 98 93 85 79 78 77 73 66 60 56 54 53 58 65 71
104 100 96 91 89 90 89 90 89 86 84 83 83 82 81 79 79 78 78 76 73 71 73 77 79 71 61 58 56 73 88 249 255 234 256 224 190 185 174 171 171 162 160 161 163 174 177 204 239 209 167 192 218 61 88 51 35 36 45 64 67 71 77 78 87 98 102 106 113 111 103 95 86 82 79 76 72 66 63 57 55 62 72 77 79
100 97 94 91 88 89 88 87 83 81 80 80 79 77 75 76 77 77 76 75 71 64 63 66 68 58 49 46 39 51 70 113 204 149 222 225 204 198 191 176 176 178 172 170 171 180 187 206 229 212 172 179 185 58 92 85 60 72 62 60 64 69 78 87 93 100 106 110 115 115 109 96 88 86 80 75 70 66 64 61 64 76 82 82 81
101 97 93 90 88 86 85 83 80 79 77 75 74 73 73 73 74 75 75 74 67 55 53 53 55 51 46 43 35 40 55 74 109 158 198 204 196 200 202 183 182 186 181 184 184 188 193 208 226 212 181 178 192 249 349 74 65 67 70 64 69 81 87 94 99 103 110 114 116 115 108 95 91 87 80 75 70 66 65 69 78 85 85 83 81
103 99 94 89 87 85 84 83 80 78 75 73 72 72 72 70 70 71 74 75 68 58 57 54 55 57 55 54 53 55 64 77 102 156 188 190 184 191 197 188 190 184 185 194 193 193 198 211 221 207 183 190 255 271 0 68 63 68 74 72 81 95 98 102 106 110 115 117 114 111 104 96 92 85 80 75 71 67 70 80 87 87 85 82 80
106 101 95 91 89 87 85 84 81 78 74 73 71 70 70 66 67 71 75 80 77 68 65 60 60 63 64 69 72 72 78 89 102 105 104 111 136 158 161 161 168 165 179 194 190 192 200 213 213 190 170 181 234 224 153 110 95 87 79 82 94 98 103 110 114 113 114 113 107 104 100 96 90 84 81 76 74 75 82 90 90 87 84 81 77
108 101 97 93 91 89 87 86 82 79 75 71 69 68 69 64 65 70 76 81 79 71 66 63 63 65 68 76 78 79 85 89 92 94 93 95 105 115 117 117 120 130 152 170 175 186 198 212 214 183 166 176 195 197 160 128 108 92 94 100 102 103 108 116 118 113 109 105 101 101 98 94 88 84 81 77 79 84 90 92 90 87 83 78 74
109 102 99 96 92 89 86 85 83 80 74 70 69 70 69 65 65 71 76 77 73 70 67 65 64 67 70 76 79 82 88 93 94 95 96 97 101 106 108 109 110 116 126 133 143 163 180 192 189 148 148 156 162 162 131 114 101 95 103 105 103 108 112 116 116 110 104 101 100 99 96 91 87 84 81 79 86 92 93 92 90 86 80 75 73
110 106 104 99 94 88 84 83 81 77 74 72 71 70 69 68 68 72 75 72 66 65 68 67 65 68 71 76 80 85 90 94 95 95 96 97 99 101 104 105 109 112 114 116 125 134 139 142 122 106 105 109 123 125 106 103 101 100 102 102 105 111 114 113 109 103 99 99 100 97 94 91 88 85 83 85 92 96 96 94 89 82 77 74 72
110 111 107 103 96 89 84 81 79 77 75 74 73 73 73 72 72 75 74 70 62 60 65 69 69 70 73 79 83 88 91 92 93 95 96 98 100 102 103 102 104 106 107 112 117 116 108 102 88 88 92 96 103 105 101 101 101 101 102 104 108 112 113 109 103 100 99 101 99 95 92 90 89 87 86 91 96 97 96 92 85 80 77 73 68
113 112 109 104 97 90 86 80 78 76 74 72 74 76 77 76 74 74 73 70 65 61 65 70 73 72 75 80 84 88 91 91 89 90 94 98 101 103 102 99 98 100 103 107 110 106 101 95 88 90 94 97 101 104 104 103 104 105 106 108 108 109 106 102 101 101 102 102 98 94 92 90 89 88 90 96 98 97 94 87 82 80 76 70 64
117 113 109 103 96 90 85 80 77 74 71 68 71 75 77 76 74 72 72 72 69 66 66 69 73 77 78 80 82 85 88 88 85 86 93 98 100 101 102 100 98 99 102 103 104 101 97 98 98 96 96 100 105 106 106 105 106 106 105 105 104 101 98 98 101 102 102 100 97 94 92 90 89 91 96 100 99 95 89 85 81 77 71 66 62
119 114 107 101 96 90 85 82 78 74 70 68 71 76 77 75 74 75 75 74 73 69 67 67 72 79 82 82 81 83 84 83 84 87 92 95 98 102 104 103 102 101 102 102 101 99 96 97 99 100 101 104 106 106 105 104 103 102 101 100 99 99 99 101 103 101 101 99 96 94 92 90 92 96 100 99 96 91 87 82 76 71 66 63 58
119 113 106 100 94 90 87 83 79 74 70 69 73 78 77 75 75 77 77 76 75 72 69 69 71 77 83 84 83 83 83 82 84 87 90 92 96 99 102 102 102 101 102 102 101 99 95 95 97 101 104 104 103 103 102 101 100 99 98 97 98 99 101 103 103 101 100 99 97 95 92 91 95 99 99 96 93 89 84 77 71 65 62 58 53
122 115 107 99 94 91 89 86 83 79 74 72 74 77 77 76 78 79 80 79 77 74 72 71 70 73 78 83 86 86 85 85 86 87 90 93 97 100 102 102 101 101 102 102 100 97 94 91 93 96 98 99 98 99 99 98 97 96 95 95 96 97 100 102 100 99 99 98 96 92 91 92 97 98 97 95 92 86 79 71 66 61 56 53 48
125 118 110 100 95 93 91 91 88 83 79 76 75 76 76 75 79 82 83 81 78 76 74 74 74 74 77 83 88 89 88 89 90 91 94 97 99 102 104 103 101 101 101 100 97 94 91 88 87 88 90 91 92 93 94 94 94 94 94 94 96 98 100 100 98 97 97 96 93 91 91 94 97 98 96 92 87 80 73 67 60 55 52 49 48
128 121 113 104 99 97 94 94 93 89 83 80 78 76 76 77 79 81 82 80 79 79 79 78 77 77 78 84 92 95 93 93 94 94 95 96 97 100 103 105 104 104 102 99 96 93 90 87 86 85 86 87 88 90 91 92 93 93 94 96 97 98 98 97 96 96 98 96 93 93 93 97 99 97 94 88 82 75 69 62 55 51 50 50 53
133 127 118 110 107 103 98 96 94 91 87 83 81 80 80 80 80 81 81 81 81 82 83 82 79 78 79 84 92 97 97 97 95 92 92 93 94 97 101 106 108 107 105 103 100 97 94 91 88 87 87 88 89 90 90 91 92 93 95 95 95 94 94 93 94 95 96 94 94 96 98 100 99 95 90 84 77 71 64 57 53 51 52 56 60
137 130 121 115 112 109 104 99 94 89 89 86 83 84 84 85 84 84 86 85 83 82 83 85 82 81 84 88 93 98 101 100 97 92 92 94 95 99 103 107 109 110 110 109 107 104 101 98 96 94 93 92 91 90 90 91 91 92 92 92 92 91 91 93 94 94 92 93 98 101 101 99 96 93 88 80 72 66 60 56 54 55 60 64 64
140 132 125 120 116 113 110 106 99 90 90 90 87 88 88 88 86 86 90 89 87 83 83 86 84 83 89 93 94 99 104 103 99 97 97 99 99 99 102 106 109 110 111 110 109 107 103 100 98 97 95 92 90 89 90 91 90 90 91 92 93 92 92 93 94 94 95 99 102 101 99 95 93 90 82 74 68 62 59 57 58 62 68 69 66
143 134 128 127 123 119 117 114 106 93 92 94 93 93 91 89 87 85 85 90 92 89 86 86 85 83 85 89 93 98 103 104 102 102 102 102 102 98 98 101 103 105 105 104 102 100 97 95 94 92 90 89 89 91 92 93 93 93 95 96 96 96 96 96 97 99 101 101 100 98 95 93 89 82 75 69 65 62 61 60 65 70 72 70 67
148 142 139 134 128 125 120 114 108 96 96 97 95 95 95 91 89 86 81 85 90 91 89 88 89 86 80 83 91 97 100 102 104 104 104 103 102 100 99 98 96 95 94 93 93 91 92 91 90 90 91 93 95 97 98 98 98 98 98 98 98 101 101 101 102 101 101 99 97 96 93 89 82 75 70 67 66 63 63 66 72 75 74 71 66
155 153 150 141 133 131 122 114 111 101 97 98 97 97 96 95 92 91 91 87 85 89 89 84 88 87 81 84 91 95 96 100 104 104 103 102 103 103 103 99 95 90 85 85 87 88 90 90 91 93 96 101 104 103 103 102 101 100 100 101 102 104 105 104 102 100 98 97 94 92 87 81 76 73 71 68 67 65 68 74 78 77 74 70 64
160 158 154 147 143 138 130 122 118 109 102 99 99 98 97 98 96 95 94 86 84 90 88 83 89 88 81 84 89 92 94 98 103 103 102 102 102 101 99 96 92 89 86 84 87 89 91 93 94 96 100 105 106 105 104 103 102 104 104 104 105 106 106 103 101 99 95 93 90 85 80 77 74 73 71 70 69 71 76 80 79 77 73 68 61
161 160 155 150 148 142 136 129 120 115 107 99 98 98 97 99 98 99 90 78 81 88 87 86 90 90 84 81 83 86 88 92 98 101 101 100 101 100 97 96 94 92 93 94 93 93 93 94 95 97 101 102 103 102 102 103 104 106 105 105 105 104 103 101 98 94 91 87 83 81 78 76 75 74 73 73 74 78 81 81 79 76 71 66 60
162 162 156 149 145 142 140 132 121 116 109 100 96 95 94 91 92 98 92 81 82 83 86 88 88 87 86 82 79 80 81 85 91 97 100 99 101 101 100 100 99 98 100 99 96 93 92 92 94 96 97 98 99 100 101 103 104 104 105 104 102 101 99 95 92 89 86 83 79 78 77 76 76 76 76 78 81 83 83 81 79 75 70 65 60
165 164 159 151 145 145 146 137 127 118 115 110 101 96 97 95 96 102 99 95 96 93 90 91 88 86 86 85 82 82 83 84 89 95 99 100 100 101 103 102 101 99 98 96 93 91 90 91 93 92 93 95 96 99 100 101 101 102 102 101 100 98 95 92 90 88 84 81 78 75 75 77 79 81 81 82 85 85 84 81 79 75 69 65 60
169 167 165 156 147 149 151 144 135 121 114 110 103 102 106 110 116 113 106 105 106 104 97 94 93 88 84 83 82 83 86 87 90 93 96 100 101 101 103 102 102 99 96 95 93 91 91 92 91 90 92 94 96 97 99 100 100 100 100 99 98 96 94 92 91 88 84 80 77 76 77 80 82 84 85 86 86 86 85 82 79 74 69 65 61
175 172 168 159 153 152 154 153 144 129 113 109 109 110 114 117 118 114 110 111 108 103 100 96 95 91 84 81 80 82 86 89 92 93 94 98 103 103 103 103 101 98 97 96 94 93 91 91 90 91 93 94 95 96 97 99 99 100 100 98 97 95 96 95 92 88 83 79 78 79 80 82 84 85 86 87 88 87 86 83 78 74 70 66 62
180 174 172 166 160 156 156 158 154 139 121 113 116 116 120 122 121 118 117 119 114 106 105 100 94 91 87 87 87 84 83 86 90 94 96 100 103 104 103 103 99 96 96 95 93 92 90 88 88 88 90 92 94 93 94 96 97 99 99 98 96 96 99 98 92 86 82 79 79 82 83 83 84 84 86 88 89 89 87 83 78 74 71 67 63
186 178 177 172 165 161 158 161 161 149 131 119 119 120 124 126 123 121 122 127 128 122 117 110 102 96 94 95 93 89 87 90 94 97 98 102 105 108 108 104 100 98 97 94 91 89 89 88 88 87 88 90 93 95 96 96 96 96 95 95 96 97 99 98 92 84 79 79 81 83 85 84 84 85 87 89 90 89 86 82 79 76 72 67 65
193 185 182 177 168 166 164 164 164 159 145 129 125 125 124 124 124 125 125 131 135 131 125 119 113 109 107 104 101 100 99 98 102 104 101 102 107 111 112 108 105 101 97 94 93 92 92 92 91 92 93 93 94 96 97 97 95 95 94 95 98 100 99 93 88 82 78 79 83 85 85 85 86 87 89 91 91 88 85 83 80 76 70 67 68
198 193 189 183 174 170 168 168 166 168 161 143 138 132 126 128 132 132 129 132 136 128 124 123 120 120 121 117 113 112 107 104 104 105 105 106 112 114 112 110 108 104 100 98 97 96 95 96 96 96 98 99 97 95 94 95 94 94 96 99 100 101 98 91 84 81 78 78 82 86 87 87 90 92 93 93 91 89 87 84 79 73 68 67 73
199 198 196 190 181 175 173 174 172 172 169 155 150 141 135 137 140 141 137 136 137 131 126 125 125 127 130 131 127 119 113 111 105 104 107 111 117 118 115 115 112 106 104 103 100 100 100 101 102 101 101 101 99 96 93 94 95 96 101 102 102 99 95 90 85 81 78 77 82 88 90 91 92 95 95 93 91 89 86 81 74 69 68 72 80
196 197 198 195 188 181 176 179 179 177 174 164 158 150 147 145 147 150 144 140 139 135 127 122 126 130 133 136 131 126 123 122 117 114 116 117 120 121 119 119 115 110 107 104 102 105 107 109 108 104 102 103 103 99 96 94 97 102 106 106 105 101 95 90 85 81 78 82 88 92 94 96 96 96 97 95 90 87 81 76 72 70 74 81 87
194 195 195 195 193 188 183 182 183 183 178 171 164 158 157 155 156 157 151 151 147 136 130 124 126 128 132 136 127 127 132 133 130 124 123 126 127 125 122 120 116 115 114 113 113 112 113 114 113 106 102 105 106 103 101 101 104 107 109 108 106 102 96 88 82 82 81 87 96 97 99 101 101 100 98 94 88 82 77 75 74 75 82 87 88
193 194 194 195 195 192 188 186 186 188 183 176 169 163 166 164 163 163 157 158 153 140 142 140 131 127 137 140 126 123 132 142 140 132 134 137 133 129 126 124 120 119 120 123 124 120 115 113 111 107 106 109 109 107 108 110 113 112 108 106 105 102 97 88 82 86 89 95 103 103 104 104 103 101 97 91 86 80 76 77 79 81 86 89 89
196 196 197 198 197 195 193 191 189 190 187 181 175 167 173 173 170 170 162 163 163 152 153 151 136 134 140 140 128 123 133 150 148 141 144 142 138 135 131 129 125 123 124 125 122 119 114 112 109 108 111 116 111 106 109 115 116 111 106 104 104 104 99 91 87 88 94 102 107 106 106 106 104 101 95 89 85 80 78 80 83 86 88 89 90
201 199 200 200 200 199 197 196 194 194 190 185 182 175 179 181 180 178 169 169 170 157 152 151 148 145 140 139 149 149 147 152 151 148 152 151 149 142 133 131 126 118 117 116 115 114 113 114 114 112 113 112 106 104 109 114 114 107 105 106 105 102 94 89 88 88 98 107 111 109 109 109 106 101 94 88 84 83 82 82 84 88 89 90 90
206 204 204 203 203 202 201 201 196 196 195 190 189 185 186 189 190 189 179 174 169 159 155 154 157 151 143 154 172 170 161 152 153 166 169 164 158 151 140 131 123 117 114 112 112 108 105 105 107 109 107 103 102 106 109 109 109 103 100 101 100 98 92 90 90 95 108 113 114 113 112 113 109 102 93 86 84 85 85 83 84 89 90 91 91
210 207 206 204 205 205 205 204 199 198 198 196 195 195 195 195 198 197 189 182 170 164 164 156 154 152 153 165 172 171 169 159 163 176 178 170 161 158 147 133 125 121 115 109 103 97 93 91 93 100 101 102 102 105 109 108 105 98 94 95 94 93 92 95 101 107 115 119 119 118 117 116 110 104 96 89 87 89 87 83 85 91 93 94 95
212 210 208 205 205 206 207 206 204 201 200 200 201 202 201 200 202 199 193 190 176 171 170 157 154 161 164 165 168 173 178 178 178 178 178 173 163 158 150 139 130 119 112 105 99 94 90 87 92 99 103 109 110 110 113 111 108 101 97 99 97 94 95 102 112 114 116 122 125 124 120 116 109 104 99 95 94 93 88 84 88 94 97 98 98
214 214 212 208 205 205 206 206 206 204 202 204 205 207 205 204 203 198 195 193 186 181 176 166 163 167 166 159 167 174 173 181 184 173 172 171 161 156 148 140 124 113 111 105 100 97 93 92 95 101 110 121 121 121 123 123 119 115 114 112 108 107 108 111 115 116 121 125 126 126 123 119 111 103 100 100 99 95 90 89 93 98 101 102 102
217 218 216 212 206 205 204 204 204 204 205 206 208 211 208 207 204 195 195 195 194 190 181 177 172 166 163 157 171 171 160 179 184 163 165 163 158 159 152 145 131 118 113 108 108 104 97 96 95 98 111 123 125 126 129 131 127 121 120 118 114 112 109 107 108 112 119 122 123 125 123 119 112 103 102 101 98 94 92 93 98 103 106 106 107
222 222 219 215 210 207 204 203 202 202 207 208 210 214 210 208 204 196 197 197 198 197 188 185 172 156 157 164 187 169 146 171 163 127 154 160 168 171 159 156 149 133 128 125 121 109 96 91 91 97 108 117 126 130 130 130 128 124 121 117 113 108 103 104 108 110 114 118 123 126 122 117 111 105 102 98 97 95 92 95 101 107 109 110 112
226 226 224 220 215 212 207 203 203 203 207 209 210 214 213 209 204 198 200 200 200 199 194 193 174 156 164 185 202 174 145 167 145 132 172 174 180 183 171 165 160 151 148 142 131 113 98 88 86 94 103 113 125 128 128 129 129 127 123 117 111 105 103 106 111 115 116 117 124 129 126 120 116 112 106 100 99 99 97 97 102 109 114 115 117
228 231 228 224 220 217 212 206 205 205 207 209 211 214 213 211 206 200 202 203 201 197 194 199 185 168 176 190 190 169 168 183 180 182 197 189 186 189 184 173 167 166 161 151 143 129 108 88 82 89 96 105 117 122 125 128 131 131 125 118 113 109 110 112 114 118 118 117 120 127 127 123 122 121 117 113 109 109 110 109 108 114 121 123 123
227 231 227 225 222 221 217 210 208 209 209 211 212 213 213 213 207 202 205 205 201 197 194 198 195 183 186 187 177 173 183 192 193 195 200 194 187 187 185 180 177 172 163 161 155 143 130 106 86 87 95 96 104 112 117 121 126 127 123 118 115 114 116 114 116 118 117 117 119 127 130 127 127 126 123 121 120 122 123 119 118 122 130 133 133
Height
5892 5893 5894 5894 5895 5895 5895 5896 5897 5896 5897 5897 5896 5895 5895 5895 5896 5896 5896 5898 5899 5900 5901 5901 5902 5903 5904 5903 5903 5903 5903 5903 5903 5903 5904 5905 5905 5906 5906 5906 5906 5906 5905 5905 5905 5904 5903 5902 5902 5908 5909 5905 5903 5905 5906 5907 5908 5908 5909 5908 5909 5910 5910 5911 5912 5913 5913 5914 5915 5915 5915 5915 5914 5914 5914 5914 5915 5915 5916 5917 5917 5916 5916 5916 5916
5894 5894 5895 5895 5896 5896 5896 5896 5897 5897 5898 5897 5896 5896 5896 5896 5896 5896 5898 5899 5901 5902 5902 5902 5904 5905 5904 5904 5904 5904 5904 5904 5903 5904 5905 5906 5906 5906 5906 5907 5907 5906 5905 5905 5905 5905 5904 5903 5904 5908 5910 5906 5905 5907 5908 5908 5909 5911 5911 5910 5910 5910 5911 5912 5913 5913 5914 5915 5915 5915 5915 5915 5915 5915 5915 5915 5916 5917 5917 5918 5917 5917 5917 5917 5916
5895 5895 5896 5896 5897 5897 5897 5897 5897 5898 5898 5897 5897 5896 5896 5896 5897 5898 5900 5902 5903 5903 5902 5903 5905 5905 5905 5904 5905 5905 5905 5905 5904 5904 5905 5906 5906 5906 5906 5907 5907 5907 5906 5906 5906 5905 5904 5904 5904 5909 5909 5906 5906 5908 5908 5910 5912 5913 5912 5911 5911 5911 5912 5913 5913 5914 5914 5915 5915 5916 5916 5916 5916 5916 5916 5917 5917 5918 5918 5919 5918 5918 5918 5917 5917
5896 5896 5896 5897 5897 5897 5898 5898 5898 5899 5898 5898 5897 5897 5897 5897 5898 5900 5902 5904 5904 5903 5902 5904 5905 5905 5905 5905 5905 5905 5905 5905 5905 5905 5905 5906 5906 5906 5906 5906 5907 5907 5907 5906 5906 5906 5905 5903 5904 5908 5909 5907 5907 5909 5909 5911 5913 5913 5912 5911 5911 5911 5912 5913 5914 5914 5915 5915 5916 5917 5917 5917 5917 5917 5918 5919 5919 5920 5920 5920 5919 5919 5919 5918 5918
5896 5897 5897 5897 5897 5898 5899 5899 5899 5899 5898 5898 5898 5898 5898 5898 5900 5902 5905 5906 5904 5902 5902 5904 5905 5905 5905 5905 5905 5905 5906 5905 5906 5905 5905 5906 5906 5905 5905 5906 5907 5908 5907 5907 5907 5906 5906 5905 5904 5907 5909 5907 5908 5910 5910 5910 5912 5913 5912 5911 5912 5912 5913 5914 5915 5915 5916 5916 5917 5918 5918 5918 5918 5919 5920 5920 5920 5921 5921 5921 5920 5920 5920 5920 5919
5897 5897 5898 5898 5899 5899 5900 5900 5900 5899 5899 5899 5899 5899 5899 5900 5902 5905 5907 5907 5904 5901 5903 5905 5906 5906 5905 5905 5905 5906 5906 5906 5906 5905 5905 5905 5905 5905 5905 5906 5907 5907 5908 5908 5907 5907 5907 5905 5904 5906 5908 5908 5909 5911 5909 5908 5910 5913 5913 5913 5913 5913 5914 5915 5916 5916 5917 5917 5918 5919 5919 5920 5920 5920 5921 5921 5922 5922 5922 5921 5921 5922 5921 5921 5920
5898 5899 5899 5900 5900 5901 5901 5901 5900 5901 5900 5900 5900 5900 5901 5902 5904 5907 5909 5907 5903 5902 5904 5905 5906 5906 5906 5905 5905 5906 5906 5906 5905 5904 5904 5904 5904 5904 5905 5906 5907 5907 5908 5908 5908 5907 5907 5905 5904 5906 5909 5909 5909 5910 5909 5908 5910 5913 5914 5914 5914 5914 5914 5916 5917 5918 5918 5919 5919 5920 5921 5921 5921 5921 5922 5922 5923 5923 5922 5922 5923 5923 5922 5922 5922
5899 5900 5901 5901 5901 5902 5902 5902 5902 5902 5902 5901 5902 5902 5903 5904 5905 5908 5909 5907 5904 5903 5905 5906 5907 5906 5906 5906 5906 5906 5906 5905 5904 5904 5904 5904 5904 5904 5904 5905 5906 5906 5907 5908 5908 5907 5906 5905 5905 5908 5910 5909 5909 5909 5910 5910 5911 5914 5915 5916 5915 5915 5916 5917 5918 5920 5920 5920 5921 5921 5922 5922 5923 5923 5923 5924 5924 5924 5923 5924 5924 5924 5924 5923 5923
5901 5901 5902 5902 5903 5903 5903 5903 5903 5903 5903 5903 5903 5904 5904 5905 5906 5909 5909 5908 5906 5905 5907 5907 5907 5907 5906 5906 5906 5907 5906 5905 5904 5904 5904 5904 5904 5904 5904 5905 5906 5906 5907 5907 5907 5907 5906 5904 5906 5910 5911 5910 5909 5909 5910 5911 5913 5915 5917 5917 5916 5916 5917 5918 5920 5921 5921 5922 5922 5923 5923 5924 5924 5924 5925 5925 5925 5924 5924 5925 5925 5925 5925 5925 5925
5902 5902 5903 5903 5904 5904 5905 5904 5904 5904 5904 5905 5905 5905 5905 5906 5907 5909 5910 5909 5907 5907 5908 5908 5908 5907 5906 5906 5907 5907 5906 5905 5904 5905 5905 5904 5903 5903 5904 5905 5905 5905 5906 5906 5906 5907 5905 5905 5907 5911 5913 5911 5910 5910 5911 5912 5914 5916 5917 5917 5917 5917 5918 5919 5921 5922 5923 5924 5924 5924 5925 5925 5925 5926 5926 5926 5926 5925 5926 5926 5926 5927 5927 5927 5927
5903 5903 5904 5905 5905 5906 5906 5906 5906 5906 5906 5906 5906 5906 5907 5907 5908 5910 5910 5909 5908 5909 5909 5909 5908 5907 5907 5907 5907 5907 5906 5905 5905 5906 5905 5905 5904 5904 5905 5905 5905 5905 5905 5906 5906 5906 5906 5906 5908 5912 5913 5912 5911 5911 5912 5913 5915 5917 5917 5917 5918 5918 5919 5921 5922 5924 5924 5925 5926 5926 5926 5926 5926 5927 5927 5927 5926 5927 5927 5927 5928 5928 5928 5928 5929
5904 5904 5905 5906 5907 5907 5907 5907 5907 5907 5907 5907 5908 5908 5908 5908 5909 5910 5911 5910 5909 5909 5910 5910 5909 5908 5908 5908 5908 5908 5907 5906 5907 5907 5906 5906 5905 5905 5906 5906 5906 5906 5906 5906 5905 5906 5907 5908 5909 5911 5913 5912 5912 5912 5913 5914 5916 5917 5917 5918 5919 5920 5921 5922 5923 5924 5925 5926 5927 5927 5927 5927 5927 5928 5928 5928 5927 5928 5928 5929 5929 5929 5929 5930 5930
5905 5906 5906 5907 5908 5908 5908 5908 5908 5908 5908 5909 5909 5909 5909 5909 5910 5911 5912 5911 5910 5909 5910 5911 5910 5909 5909 5909 5909 5910 5909 5908 5907 5908 5907 5907 5906 5906 5907 5907 5907 5907 5907 5906 5906 5907 5908 5908 5908 5910 5912 5912 5912 5913 5914 5915 5916 5917 5918 5919 5920 5921 5923 5924 5924 5925 5926 5927 5928 5928 5928 5928 5929 5929 5929 5928 5929 5929 5930 5930 5930 5931 5931 5931 5931
5907 5907 5907 5908 5909 5909 5909 5909 5909 5909 5910 5910 5910 5910 5910 5911 5911 5912 5913 5912 5911 5910 5911 5911 5911 5910 5910 5910 5911 5911 5911 5909 5909 5909 5909 5908 5908 5908 5908 5908 5908 5908 5908 5908 5908 5909 5910 5910 5910 5911 5912 5913 5914 5915 5916 5917 5918 5918 5919 5920 5921 5922 5924 5925 5926 5926 5927 5928 5929 5929 5930 5930 5930 5930 5929 5929 5930 5931 5931 5932 5932 5932 5932 5933 5933
5908 5908 5909 5909 5910 5910 5910 5910 5910 5910 5911 5911 5911 5912 5911 5912 5913 5914 5914 5913 5913 5912 5912 5912 5912 5912 5911 5911 5912 5913 5913 5912 5911 5910 5910 5910 5910 5910 5910 5910 5910 5910 5910 5909 5909 5910 5912 5913 5913 5913 5914 5915 5917 5918 5919 5920 5920 5920 5921 5922 5922 5923 5924 5926 5927 5928 5928 5929 5930 5930 5931 5931 5931 5931 5931 5931 5931 5932 5933 5933 5933 5934 5934 5934 5935
5909 5909 5910 5910 5911 5911 5911 5911 5911 5911 5912 5912 5913 5913 5913 5913 5914 5915 5915 5915 5914 5913 5913 5913 5913 5913 5912 5912 5912 5913 5914 5913 5912 5912 5912 5912 5911 5912 5912 5912 5912 5912 5912 5912 5911 5911 5913 5915 5916 5916 5917 5918 5919 5920 5920 5921 5921 5922 5923 5923 5924 5925 5926 5928 5929 5929 5930 5931 5931 5932 5932 5932 5932 5932 5932 5932 5933 5933 5934 5935 5935 5935 5936 5936 5936
5910 5910 5911 5911 5912 5912 5912 5913 5912 5912 5913 5914 5914 5914 5914 5914 5915 5915 5916 5915 5915 5914 5914 5914 5914 5914 5913 5913 5913 5913 5914 5914 5914 5914 5914 5913 5913 5913 5913 5913 5913 5914 5914 5914 5914 5913 5914 5916 5918 5919 5920 5921 5921 5921 5922 5922 5923 5924 5924 5925 5926 5927 5929 5930 5931 5931 5932 5933 5933 5933 5933 5933 5933 5933 5933 5934 5934 5935 5936 5936 5937 5937 5937 5938 5937
5910 5911 5911 5912 5913 5913 5913 5914 5914 5914 5914 5915 5916 5916 5915 5915 5916 5916 5916 5916 5916 5915 5915 5915 5915 5915 5915 5915 5914 5914 5914 5915 5915 5915 5915 5915 5915 5915 5915 5915 5915 5916 5916 5916 5916 5916 5916 5917 5919 5921 5922 5922 5923 5923 5924 5924 5925 5926 5926 5927 5928 5929 5930 5932 5932 5932 5933 5934 5934 5934 5934 5934 5934 5934 5935 5935 5936 5937 5937 5938 5938 5939 5939 5939 5938
5911 5912 5912 5913 5913 5914 5914 5915 5915 5915 5915 5916 5917 5917 5917 5917 5917 5917 5917 5917 5917 5917 5917 5917 5916 5916 5916 5916 5916 5916 5916 5916 5916 5916 5917 5917 5918 5918 5918 5918 5918 5918 5919 5919 5919 5919 5919 5919 5920 5921 5922 5923 5924 5925 5926 5927 5927 5928 5929 5929 5930 5931 5932 5933 5933 5934 5935 5935 5935 5935 5935 5935 5936 5936 5936 5937 5938 5939 5939 5939 5940 5940 5940 5940 5940
5912 5912 5913 5914 5914 5915 5916 5916 5916 5916 5916 5917 5918 5919 5918 5919 5919 5919 5919 5918 5918 5918 5918 5918 5918 5918 5919 5918 5918 5917 5918 5918 5918 5918 5918 5919 5919 5920 5920 5920 5920 5921 5921 5921 5921 5921 5921 5921 5922 5922 5923 5924 5925 5926 5927 5928 5929 5930 5931 5931 5932 5933 5934 5934 5934 5935 5936 5936 5935 5936 5936 5937 5937 5938 5938 5939 5940 5940 5941 5941 5941 5942 5941 5941 5941
5913 5913 5914 5915 5915 5916 5917 5917 5917 5917 5917 5918 5919 5920 5920 5920 5920 5920 5920 5920 5919 5919 5919 5919 5919 5920 5921 5920 5920 5919 5919 5919 5919 5920 5920 5920 5921 5921 5922 5922 5923 5923 5923 5923 5923 5923 5923 5923 5924 5924 5925 5926 5927 5928 5928 5929 5930 5931 5932 5933 5933 5934 5935 5935 5935 5936 5936 5936 5937 5937 5938 5938 5939 5939 5940 5941 5941 5942 5942 5942 5943 5943 5943 5942 5942
5914 5914 5915 5915 5916 5917 5917 5918 5918 5918 5919 5919 5921 5921 5921 5921 5921 5921 5921 5921 5921 5920 5920 5920 5920 5921 5922 5922 5921 5921 5921 5921 5921 5921 5922 5922 5922 5923 5923 5924 5924 5925 5925 5925 5925 5925 5926 5926 5926 5927 5927 5928 5929 5929 5929 5930 5931 5932 5933 5934 5935 5935 5936 5936 5937 5937 5937 5938 5938 5939 5940 5940 5941 5941 5942 5942 5943 5943 5944 5944 5944 5944 5944 5944 5943
5916 5916 5916 5917 5917 5918 5919 5919 5919 5919 5920 5921 5922 5923 5922 5922 5922 5922 5923 5922 5922 5921 5921 5921 5920 5921 5923 5924 5923 5923 5923 5923 5923 5924 5924 5924 5924 5925 5925 5925 5926 5926 5926 5927 5927 5927 5927 5928 5928 5928 5929 5929 5930 5930 5931 5932 5933 5934 5934 5935 5936 5936 5937 5938 5938 5939 5939 5939 5940 5941 5942 5942 5942 5943 5943 5944 5944 5945 5945 5945 5945 5945 5945 5945 5945
5917 5917 5917 5918 5919 5919 5920 5920 5920 5920 5921 5922 5923 5924 5923 5923 5923 5924 5925 5924 5923 5923 5923 5922 5921 5922 5924 5925 5925 5925 5925 5925 5925 5926 5926 5926 5926 5926 5927 5927 5927 5927 5927 5928 5928 5928 5929 5929 5929 5929 5930 5930 5931 5932 5932 5933 5934 5935 5935 5936 5937 5938 5938 5939 5940 5940 5941 5941 5942 5943 5943 5944 5944 5944 5945 5946 5946 5946 5947 5947 5947 5947 5947 5946 5946
5918 5918 5919 5920 5920 5921 5921 5921 5921 5921 5922 5922 5923 5924 5925 5925 5925 5926 5925 5925 5925 5925 5925 5924 5923 5923 5924 5925 5926 5926 5926 5926 5927 5927 5927 5927 5928 5928 5929 5929 5929 5929 5929 5929 5929 5929 5929 5930 5930 5931 5932 5932 5933 5934 5934 5935 5935 5936 5937 5938 5938 5939 5940 5941 5941 5942 5943 5943 5944 5945 5945 5945 5946 5946 5947 5947 5948 5948 5948 5948 5948 5948 5948 5948 5947
5919 5920 5920 5921 5922 5922 5922 5922 5922 5922 5923 5923 5924 5925 5926 5926 5927 5928 5926 5926 5926 5926 5927 5926 5925 5925 5926 5926 5927 5927 5927 5927 5927 5928 5929 5929 5929 5930 5930 5930 5931 5931 5931 5931 5930 5930 5931 5931 5932 5933 5934 5934 5935 5935 5936 5936 5937 5937 5938 5939 5940 5941 5942 5943 5944 5944 5945 5946 5946 5947 5947 5947 5947 5948 5948 5949 5949 5949 5950 5950 5950 5949 5949 5949 5949
5920 5921 5921 5922 5923 5923 5923 5923 5923 5923 5924 5924 5925 5925 5926 5927 5929 5929 5927 5927 5928 5928 5928 5929 5928 5928 5928 5928 5927 5927 5928 5928 5929 5929 5930 5930 5931 5931 5931 5932 5933 5933 5933 5933 5933 5933 5933 5933 5934 5935 5936 5937 5937 5937 5938 5938 5939 5939 5940 5941 5942 5943 5944 5945 5946 5946 5947 5947 5948 5948 5948 5948 5949 5949 5950 5950 5950 5951 5951 5951 5951 5951 5951 5950 5950
5920 5921 5922 5923 5924 5925 5925 5925 5924 5924 5925 5925 5925 5926 5926 5928 5930 5930 5929 5928 5928 5928 5929 5930 5930 5930 5930 5929 5929 5929 5929 5929 5930 5930 5930 5931 5932 5933 5933 5934 5935 5935 5935 5936 5936 5936 5936 5936 5936 5937 5938 5938 5939 5939 5939 5940 5941 5941 5942 5943 5944 5945 5946 5947 5947 5948 5949 5949 5949 5950 5950 5950 5950 5951 5951 5952 5952 5952 5953 5953 5952 5952 5952 5952 5952
5921 5922 5922 5923 5924 5925 5926 5926 5926 5926 5926 5926 5926 5926 5927 5928 5929 5930 5931 5930 5929 5929 5930 5931 5931 5931 5932 5931 5930 5930 5930 5930 5930 5930 5931 5932 5933 5934 5935 5936 5937 5937 5938 5938 5938 5938 5938 5938 5939 5939 5940 5940 5941 5941 5942 5942 5943 5944 5945 5945 5946 5947 5948 5949 5950 5950 5951 5951 5951 5951 5952 5952 5952 5953 5953 5953 5953 5954 5954 5954 5954 5954 5954 5954 5954
5921 5922 5923 5923 5924 5925 5926 5927 5927 5927 5927 5927 5927 5927 5927 5928 5929 5930 5932 5933 5932 5931 5931 5932 5933 5933 5934 5934 5933 5933 5932 5931 5931 5932 5933 5934 5935 5936 5937 5938 5939 5940 5940 5939 5939 5939 5940 5940 5941 5941 5942 5942 5943 5944 5945 5945 5946 5947 5947 5948 5949 5950 5950 5951 5952 5952 5953 5953 5953 5953 5954 5954 5954 5954 5954 5955 5955 5955 5955 5955 5955 5955 5955 5955 5955
5922 5923 5923 5924 5924 5925 5926 5927 5928 5928 5928 5929 5928 5928 5929 5929 5930 5930 5932 5933 5934 5934 5933 5933 5934 5935 5936 5937 5936 5936 5935 5934 5934 5934 5934 5935 5936 5937 5938 5940 5941 5942 5942 5941 5941 5941 5942 5942 5943 5943 5944 5945 5946 5947 5948 5948 5949 5949 5950 5950 5951 5952 5952 5953 5954 5954 5954 5955 5955 5955 5955 5955 5955 5955 5956 5956 5956 5956 5956 5957 5957 5957 5957 5957 5957
5922 5923 5924 5925 5925 5926 5927 5927 5928 5929 5929 5930 5930 5930 5930 5930 5931 5931 5932 5933 5934 5935 5935 5935 5936 5937 5937 5937 5937 5937 5937 5937 5937 5937 5937 5937 5937 5938 5939 5941 5943 5943 5944 5943 5943 5943 5944 5944 5945 5946 5947 5947 5949 5949 5950 5951 5951 5951 5952 5952 5953 5954 5954 5955 5955 5956 5956 5956 5957 5957 5957 5957 5957 5957 5957 5957 5957 5958 5958 5958 5958 5959 5959 5958 5958
5922 5924 5925 5925 5926 5926 5927 5928 5929 5929 5930 5931 5931 5932 5932 5932 5932 5933 5933 5933 5934 5935 5936 5937 5937 5938 5938 5938 5937 5937 5938 5939 5940 5940 5939 5939 5938 5939 5940 5942 5944 5945 5946 5945 5945 5945 5946 5946 5947 5948 5949 5950 5951 5952 5952 5953 5953 5953 5954 5954 5955 5955 5956 5956 5957 5957 5958 5958 5958 5958 5958 5958 5958 5958 5959 5959 5959 5959 5959 5959 5960 5960 5960 5960 5959
5922 5924 5925 5926 5926 5927 5928 5928 5929 5930 5931 5932 5932 5933 5933 5933 5934 5934 5934 5934 5935 5936 5938 5938 5939 5939 5939 5939 5939 5939 5940 5941 5942 5942 5942 5941 5940 5941 5942 5943 5944 5946 5947 5947 5946 5947 5948 5948 5949 5950 5951 5952 5953 5954 5954 5954 5955 5955 5955 5956 5956 5957 5957 5958 5959 5959 5959 5959 5959 5960 5960 5960 5960 5960 5960 5960 5960 5960 5961 5961 5961 5961 5961 5961 5960
5922 5924 5925 5926 5926 5927 5928 5929 5930 5931 5932 5932 5933 5933 5933 5934 5934 5935 5935 5935 5936 5937 5939 5940 5941 5941 5941 5941 5941 5941 5942 5943 5944 5945 5945 5944 5943 5943 5943 5944 5946 5947 5948 5948 5948 5949 5949 5950 5951 5952 5953 5954 5955 5956 5956 5956 5956 5957 5957 5957 5958 5959 5959 5960 5960 5960 5961 5961 5961 5961 5961 5961 5961 5961 5961 5961 5962 5962 5962 5962 5963 5963 5962 5962 5962
5922 5924 5925 5926 5927 5928 5929 5929 5930 5931 5932 5933 5933 5934 5934 5935 5935 5935 5936 5936 5937 5938 5939 5941 5942 5943 5943 5943 5944 5943 5944 5945 5946 5947 5946 5946 5946 5946 5946 5946 5947 5948 5949 5950 5950 5951 5952 5952 5953 5954 5955 5956 5957 5957 5958 5958 5958 5958 5959 5959 5959 5960 5961 5962 5962 5962 5962 5962 5962 5962 5962 5963 5962 5962 5963 5963 5963 5963 5964 5964 5964 5964 5963 5963 5963
5922 5923 5925 5926 5927 5928 5929 5930 5931 5932 5933 5934 5934 5934 5935 5935 5936 5936 5936 5937 5938 5939 5940 5941 5943 5944 5945 5945 5945 5946 5946 5946 5947 5948 5948 5948 5949 5948 5948 5948 5948 5949 5950 5951 5952 5953 5954 5954 5955 5955 5957 5957 5958 5959 5959 5959 5959 5960 5960 5960 5961 5962 5962 5963 5963 5963 5963 5963 5963 5964 5964 5964 5964 5964 5964 5964 5964 5965 5965 5965 5965 5965 5965 5965 5965
5922 5923 5925 5926 5927 5928 5929 5930 5931 5932 5933 5934 5935 5935 5935 5936 5937 5937 5937 5938 5939 5940 5941 5942 5944 5945 5946 5947 5947 5948 5949 5949 5949 5949 5950 5950 5951 5950 5951 5950 5950 5951 5952 5953 5954 5955 5956 5956 5956 5957 5958 5958 5959 5960 5960 5960 5961 5961 5961 5962 5962 5963 5963 5964 5964 5964 5964 5964 5965 5965 5965 5965 5965 5965 5965 5966 5966 5966 5966 5966 5966 5966 5966 5966 5966
5922 5923 5924 5926 5927 5928 5929 5930 5932 5933 5934 5935 5935 5936 5936 5937 5938 5938 5939 5939 5939 5941 5942 5943 5944 5945 5946 5947 5948 5949 5950 5951 5951 5951 5951 5952 5953 5952 5952 5952 5952 5952 5954 5955 5956 5956 5957 5958 5958 5958 5959 5960 5960 5961 5961 5961 5962 5962 5963 5963 5963 5964 5965 5965 5965 5965 5965 5965 5965 5966 5966 5966 5966 5967 5967 5967 5967 5968 5968 5968 5968 5968 5968 5968 5968
5921 5923 5924 5925 5926 5928 5929 5930 5931 5933 5934 5935 5936 5937 5937 5938 5938 5939 5940 5940 5940 5942 5943 5944 5945 5946 5946 5947 5949 5950 5951 5952 5952 5952 5953 5954 5954 5954 5954 5953 5953 5954 5955 5956 5957 5958 5958 5959 5959 5960 5961 5961 5962 5962 5962 5962 5962 5963 5964 5964 5965 5965 5965 5966 5966 5966 5966 5966 5966 5966 5967 5967 5967 5968 5968 5968 5969 5969 5969 5969 5969 5969 5969 5969 5969
5921 5923 5924 5925 5926 5927 5929 5930 5931 5932 5934 5935 5936 5937 5937 5938 5939 5939 5940 5941 5941 5943 5944 5945 5946 5947 5947 5947 5948 5950 5951 5952 5952 5953 5954 5954 5955 5955 5955 5954 5954 5955 5956 5957 5958 5959 5960 5960 5960 5961 5962 5962 5962 5963 5963 5963 5963 5964 5964 5965 5966 5966 5966 5966 5967 5967 5967 5967 5967 5968 5968 5968 5968 5969 5969 5970 5970 5970 5971 5971 5970 5970 5971 5970 5970
5921 5923 5924 5925 5927 5928 5929 5930 5931 5932 5934 5935 5936 5937 5938 5938 5939 5940 5941 5942 5942 5944 5945 5946 5947 5948 5949 5948 5949 5950 5951 5952 5953 5954 5955 5955 5956 5956 5956 5956 5956 5956 5957 5958 5959 5960 5961 5961 5962 5962 5962 5963 5963 5963 5964 5964 5964 5965 5965 5966 5966 5967 5967 5967 5967 5968 5968 5968 5968 5969 5969 5969 5970 5970 5971 5971 5971 5971 5972 5972 5972 5972 5972 5972 5972
5922 5923 5924 5925 5927 5928 5929 5930 5931 5932 5933 5935 5936 5937 5937 5938 5939 5940 5941 5942 5943 5944 5945 5947 5948 5949 5950 5950 5950 5951 5951 5952 5953 5955 5956 5957 5957 5957 5957 5957 5957 5957 5958 5959 5959 5961 5962 5962 5962 5963 5963 5963 5963 5964 5965 5965 5966 5966 5966 5967 5967 5968 5968 5968 5968 5969 5969 5969 5969 5970 5970 5971 5971 5971 5972 5972 5973 5973 5973 5973 5973 5973 5973 5973 5973
5921 5923 5924 5925 5926 5927 5928 5930 5931 5932 5933 5934 5935 5936 5937 5938 5939 5940 5940 5941 5943 5944 5945 5947 5948 5950 5951 5952 5952 5952 5952 5953 5955 5956 5957 5958 5958 5958 5958 5958 5959 5959 5959 5959 5960 5961 5962 5963 5963 5963 5964 5964 5964 5965 5966 5966 5967 5967 5967 5968 5968 5969 5969 5969 5969 5970 5970 5970 5970 5971 5971 5972 5972 5972 5973 5973 5974 5974 5974 5974 5974 5974 5974 5974 5974
5921 5922 5923 5925 5926 5927 5928 5930 5931 5932 5933 5934 5935 5936 5937 5938 5939 5940 5941 5941 5942 5944 5944 5946 5948 5950 5952 5953 5953 5953 5953 5955 5956 5957 5958 5958 5958 5958 5958 5959 5959 5959 5960 5960 5961 5961 5962 5963 5964 5964 5965 5965 5965 5966 5967 5967 5968 5968 5969 5969 5969 5969 5969 5970 5970 5970 5971 5971 5971 5971 5972 5973 5973 5973 5974 5974 5975 5975 5975 5975 5975 5975 5975 5975 5975
5920 5921 5923 5924 5925 5927 5928 5929 5931 5932 5933 5934 5935 5936 5937 5938 5939 5940 5941 5942 5942 5943 5944 5945 5947 5949 5951 5952 5953 5954 5955 5956 5956 5957 5957 5958 5957 5957 5958 5959 5959 5960 5960 5961 5962 5962 5963 5964 5964 5965 5966 5966 5966 5967 5968 5969 5969 5969 5970 5970 5970 5970 5970 5971 5971 5971 5971 5972 5972 5972 5973 5973 5974 5974 5975 5975 5975 5976 5976 5976 5976 5976 5976 5977 5977
5920 5921 5922 5924 5925 5927 5928 5929 5930 5931 5932 5933 5934 5936 5937 5938 5939 5940 5941 5942 5943 5943 5944 5945 5946 5948 5949 5950 5952 5953 5954 5954 5954 5955 5956 5956 5957 5957 5958 5959 5960 5960 5961 5962 5963 5964 5964 5965 5965 5966 5967 5967 5968 5968 5969 5970 5970 5970 5971 5971 5971 5971 5971 5971 5972 5972 5972 5972 5973 5974 5974 5974 5975 5976 5976 5976 5976 5977 5977 5977 5977 5977 5978 5978 5978
5919 5921 5922 5924 5925 5926 5927 5928 5930 5931 5932 5933 5934 5935 5937 5938 5939 5940 5941 5942 5943 5944 5945 5945 5946 5947 5948 5949 5950 5951 5952 5952 5953 5954 5954 5955 5956 5957 5958 5959 5960 5961 5962 5963 5964 5964 5965 5966 5967 5967 5968 5968 5969 5970 5970 5970 5971 5971 5971 5972 5971 5972 5972 5972 5972 5972 5973 5973 5974 5974 5975 5976 5976 5977 5977 5977 5977 5978 5978 5978 5978 5978 5979 5979 5979
5919 5921 5922 5924 5925 5926 5927 5928 5929 5930 5931 5932 5934 5935 5936 5938 5939 5940 5941 5942 5944 5944 5945 5946 5946 5947 5948 5949 5949 5950 5952 5952 5953 5954 5955 5955 5956 5957 5958 5959 5961 5962 5963 5964 5965 5965 5966 5966 5967 5968 5969 5969 5970 5970 5971 5971 5972 5972 5972 5972 5972 5972 5972 5973 5973 5973 5973 5974 5975 5975 5976 5976 5977 5978 5978 5978 5979 5979 5979 5979 5979 5979 5980 5980 5980
5918 5920 5922 5923 5925 5926 5927 5928 5929 5930 5931 5932 5933 5935 5936 5937 5939 5940 5941 5942 5944 5945 5946 5947 5947 5948 5949 5949 5950 5951 5952 5953 5954 5955 5956 5957 5957 5958 5959 5960 5962 5963 5964 5965 5966 5966 5967 5967 5968 5969 5969 5970 5970 5971 5971 5972 5972 5973 5973 5973 5973 5973 5973 5973 5973 5974 5974 5975 5975 5976 5977 5977 5978 5978 5978 5979 5979 5980 5980 5980 5980 5980 5981 5981 5981
5917 5919 5921 5922 5924 5925 5927 5928 5929 5930 5931 5932 5933 5934 5936 5937 5938 5940 5941 5942 5944 5945 5946 5947 5948 5949 5949 5950 5951 5952 5953 5954 5955 5956 5957 5958 5958 5959 5960 5962 5963 5964 5965 5966 5966 5967 5967 5968 5969 5969 5970 5970 5971 5971 5972 5973 5973 5973 5974 5974 5974 5974 5974 5974 5974 5974 5975 5975 5976 5977 5977 5978 5978 5979 5979 5979 5980 5980 5981 5981 5981 5981 5981 5982 5982